Tracking 35237 objects as of 5-Sep-2026
HD Live streaming from Space Station
objects crossing your sky now

STARLINK-34515

Track STARLINK-34515 now!
10-day predictions
STARLINK-34515 is classified as:


NORAD ID: 64712
Int'l Code: 2025-142S
Launch date: June 28, 2025
Source: United States (US)
Launch site: AIR FORCE WESTERN TEST RANGE (AFWTR)
Your satellite tracking list
Your tracking list is empty




NASA's NSSDC Master Catalog

Two Line Element Set (TLE):
1 64712U 25142S   26248.25002315  .03533974  00000-0  14435+0 0  9994
2 64712  70.0047 221.3592 0001314 350.4316 101.3273 15.20424752  5728
Source of the keplerian elements: AFSPC